Time,TemperatureF,DewpointF,PressureIn,WindDirection,WindDirectionDegrees,WindSpeedMPH,WindSpeedGustMPH,Humidity,HourlyPrecipIn,Conditions,Clouds,dailyrainin,SoftwareType,DateUTC
2013-05-12 00:02:00,42.3,12.3,30.05,NW,317,12.8,18.8,29,0.00,,---,0.00,VWS V12.08,2013-05-12 05:02:00,
2013-05-12 00:17:00,42.3,12.3,30.05,NNW,330,11.0,16.8,29,0.00,,---,0.00,VWS V12.08,2013-05-12 05:17:00,
2013-05-12 00:32:00,41.7,11.8,30.05,NW,321,8.3,23.3,29,0.00,,---,0.00,VWS V12.08,2013-05-12 05:32:00,
2013-05-12 00:47:00,41.0,11.2,30.05,WNW,294,8.1,16.3,29,0.00,,---,0.00,VWS V12.08,2013-05-12 05:47:00,
2013-05-12 01:02:00,40.3,10.6,30.05,North,353,13.2,18.3,29,0.00,,---,0.00,VWS V12.08,2013-05-12 06:02:00,
2013-05-12 01:17:00,39.6,12.1,30.05,NNW,341,3.6,14.5,32,0.00,,---,0.00,VWS V12.08,2013-05-12 06:17:00,
2013-05-12 01:32:00,39.0,11.7,30.05,NW,309,5.8,15.0,32,0.00,,---,0.00,VWS V12.08,2013-05-12 06:32:00,
2013-05-12 01:47:00,38.3,13.1,30.05,NNW,327,4.9,8.3,35,0.00,,---,0.00,VWS V12.08,2013-05-12 06:47:00,
2013-05-12 02:02:00,37.6,13.1,30.05,WNW,299,3.6,5.8,36,0.00,,---,0.00,VWS V12.08,2013-05-12 07:02:00,
2013-05-12 02:17:00,37.8,13.8,30.05,NW,317,3.1,4.9,37,0.00,,---,0.00,VWS V12.08,2013-05-12 07:17:00,
2013-05-12 02:32:00,37.9,14.0,30.05,NW,307,0.0,4.0,37,0.00,,---,0.00,VWS V12.08,2013-05-12 07:32:00,
2013-05-12 02:47:00,37.9,15.2,30.05,West,266,0.0,0.0,39,0.00,,---,0.00,VWS V12.08,2013-05-12 07:47:00,
2013-05-12 03:02:00,38.3,13.7,30.05,WNW,297,0.0,0.0,36,0.00,,---,0.00,VWS V12.08,2013-05-12 08:02:00,
2013-05-12 03:17:00,38.1,12.9,30.05,North,353,0.0,0.0,35,0.00,,---,0.00,VWS V12.08,2013-05-12 08:17:00,
2013-05-12 03:32:00,37.9,12.7,30.05,NNW,328,0.0,0.0,35,0.00,,---,0.00,VWS V12.08,2013-05-12 08:32:00,
2013-05-12 03:46:00,37.4,12.3,30.05,NW,326,0.0,0.0,35,0.00,,---,0.00,VWS V12.08,2013-05-12 08:46:00,
2013-05-12 04:01:00,37.4,12.3,30.05,North,2,0.0,0.0,35,0.00,,---,0.00,VWS V12.08,2013-05-12 09:01:00,
2013-05-12 04:16:00,37.4,10.2,30.05,North,0,0.0,0.0,32,0.00,,---,0.00,VWS V12.08,2013-05-12 09:16:00,
2013-05-12 04:31:00,37.4,8.8,30.05,North,3,0.0,0.0,30,0.00,,---,0.00,VWS V12.08,2013-05-12 09:31:00,
2013-05-12 04:46:00,37.0,8.5,30.05,North,3,0.0,0.0,30,0.00,,---,0.00,VWS V12.08,2013-05-12 09:46:00,
2013-05-12 05:02:00,36.7,8.2,30.05,NNW,342,0.0,0.0,30,0.00,,---,0.00,VWS V12.08,2013-05-12 10:02:00,
2013-05-12 05:17:00,36.5,8.0,30.05,WNW,299,0.0,0.0,30,0.00,,---,0.00,VWS V12.08,2013-05-12 10:17:00,
2013-05-12 05:32:00,35.8,7.4,30.05,NNW,327,0.0,0.0,30,0.00,,---,0.00,VWS V12.08,2013-05-12 10:32:00,
2013-05-12 05:47:00,36.0,7.6,30.05,North,353,0.0,0.0,30,0.00,,---,0.00,VWS V12.08,2013-05-12 10:47:00,
2013-05-12 06:02:00,35.8,7.4,30.05,NNW,330,0.0,0.0,30,0.00,,---,0.00,VWS V12.08,2013-05-12 11:02:00,
2013-05-12 06:17:00,36.1,7.7,30.05,WNW,299,0.0,0.0,30,0.00,,---,0.00,VWS V12.08,2013-05-12 11:17:00,
2013-05-12 06:32:00,36.3,7.9,30.05,NW,310,0.0,0.0,30,0.00,,---,0.00,VWS V12.08,2013-05-12 11:32:00,
2013-05-12 06:47:00,36.9,8.3,30.05,North,7,0.0,0.0,30,0.00,,---,0.00,VWS V12.08,2013-05-12 11:47:00,
2013-05-12 07:02:00,37.0,8.5,30.05,NW,317,0.0,0.0,30,0.00,,---,0.00,VWS V12.08,2013-05-12 12:02:00,
2013-05-12 07:17:00,38.1,9.4,30.05,NNW,335,0.0,0.0,30,0.00,,---,0.00,VWS V12.08,2013-05-12 12:17:00,
2013-05-12 07:32:00,39.0,10.2,30.05,NW,321,0.0,0.0,30,0.00,,---,0.00,VWS V12.08,2013-05-12 12:32:00,
2013-05-12 07:47:00,39.7,10.1,30.05,NNW,340,0.0,0.0,29,0.00,,---,0.00,VWS V12.08,2013-05-12 12:47:00,
2013-05-12 08:02:00,40.3,9.0,30.05,NW,314,0.0,0.0,27,0.00,,---,0.00,VWS V12.08,2013-05-12 13:02:00,
2013-05-12 08:17:00,40.5,9.1,30.05,NW,324,0.0,0.0,27,0.00,,---,0.00,VWS V12.08,2013-05-12 13:17:00,
2013-05-12 08:46:00,42.4,10.8,30.05,North,350,8.1,16.8,27,0.00,,---,0.00,VWS V12.08,2013-05-12 13:46:00,
2013-05-12 09:01:00,44.2,11.5,30.05,NW,315,19.2,19.2,26,0.00,,---,0.00,VWS V12.08,2013-05-12 14:01:00,
2013-05-12 09:16:00,43.7,11.1,30.05,North,353,8.3,19.2,26,0.00,,---,0.00,VWS V12.08,2013-05-12 14:16:00,
2013-05-12 09:31:00,44.8,12.0,30.05,NW,305,11.9,21.0,26,0.00,,---,0.00,VWS V12.08,2013-05-12 14:31:00,
2013-05-12 09:47:00,45.0,12.2,30.05,NNW,327,8.1,18.3,26,0.00,,---,0.00,VWS V12.08,2013-05-12 14:47:00,
2013-05-12 10:02:00,45.0,12.2,30.05,NNW,334,11.9,18.3,26,0.00,,---,0.00,VWS V12.08,2013-05-12 15:02:00,
2013-05-12 10:17:00,45.5,12.6,30.05,WNW,298,12.3,16.8,26,0.00,,---,0.00,VWS V12.08,2013-05-12 15:17:00,
2013-05-12 10:32:00,46.8,12.8,30.05,NW,310,13.2,17.0,25,0.00,,---,0.00,VWS V12.08,2013-05-12 15:32:00,
2013-05-12 10:47:00,47.3,13.3,30.05,NW,315,5.8,18.8,25,0.00,,---,0.00,VWS V12.08,2013-05-12 15:47:00,
2013-05-12 11:02:00,47.7,13.6,30.05,NW,317,8.7,16.3,25,0.00,,---,0.00,VWS V12.08,2013-05-12 16:02:00,
2013-05-12 11:17:00,48.6,14.4,30.05,West,281,7.6,14.5,25,0.00,,---,0.00,VWS V12.08,2013-05-12 16:17:00,
2013-05-12 11:32:00,49.5,15.1,30.05,NW,306,15.0,17.9,25,0.00,,---,0.00,VWS V12.08,2013-05-12 16:32:00,
2013-05-12 11:47:00,49.3,15.0,30.05,WNW,294,15.4,16.8,25,0.00,,---,0.00,VWS V12.08,2013-05-12 16:47:00,
2013-05-12 12:02:00,50.7,16.2,30.05,NW,324,12.8,17.4,25,0.00,,---,0.00,VWS V12.08,2013-05-12 17:02:00,
2013-05-12 12:17:00,50.2,15.7,30.05,NNW,335,15.0,18.3,25,0.00,,---,0.00,VWS V12.08,2013-05-12 17:17:00,
2013-05-12 12:32:00,51.6,17.0,30.05,NW,311,8.1,17.4,25,0.00,,---,0.00,VWS V12.08,2013-05-12 17:32:00,
2013-05-12 12:47:00,50.9,16.4,30.05,NNW,337,11.0,17.4,25,0.00,,---,0.00,VWS V12.08,2013-05-12 17:47:00,
2013-05-12 13:02:00,52.7,16.9,30.05,WSW,249,6.3,17.0,24,0.00,,---,0.00,VWS V12.08,2013-05-12 18:02:00,
2013-05-12 13:17:00,52.9,17.1,30.05,West,276,7.6,17.4,24,0.00,,---,0.00,VWS V12.08,2013-05-12 18:17:00,
2013-05-12 13:32:00,52.5,16.8,30.05,West,266,8.3,19.2,24,0.00,,---,0.00,VWS V12.08,2013-05-12 18:32:00,
2013-05-12 13:46:00,54.3,18.3,30.05,North,353,7.2,18.3,24,0.00,,---,0.00,VWS V12.08,2013-05-12 18:46:00,
2013-05-12 14:01:00,54.3,18.3,30.05,WNW,300,15.4,17.4,24,0.00,,---,0.00,VWS V12.08,2013-05-12 19:01:00,
2013-05-12 14:16:00,53.8,17.9,30.05,WNW,292,8.3,19.2,24,0.00,,---,0.00,VWS V12.08,2013-05-12 19:16:00,
2013-05-12 14:31:00,54.5,18.5,30.05,WNW,286,10.5,16.8,24,0.00,,---,0.00,VWS V12.08,2013-05-12 19:31:00,
2013-05-12 14:46:00,53.4,17.5,30.05,North,350,8.7,15.4,24,0.00,,---,0.00,VWS V12.08,2013-05-12 19:46:00,
2013-05-12 15:01:00,54.0,18.0,30.05,WNW,284,7.6,13.2,24,0.00,,---,0.00,VWS V12.08,2013-05-12 20:01:00,
2013-05-12 15:16:00,55.0,18.9,30.05,NNW,332,5.4,15.4,24,0.00,,---,0.00,VWS V12.08,2013-05-12 20:16:00,
2013-05-12 15:31:00,54.9,18.8,30.05,NNW,331,7.6,15.4,24,0.00,,---,0.00,VWS V12.08,2013-05-12 20:31:00,
2013-05-12 15:47:00,55.2,19.1,30.05,NW,310,3.6,14.5,24,0.00,,---,0.00,VWS V12.08,2013-05-12 20:47:00,
2013-05-12 16:02:00,52.9,17.1,30.05,WNW,298,11.0,14.1,24,0.00,,---,0.00,VWS V12.08,2013-05-12 21:02:00,
2013-05-12 16:17:00,55.2,19.1,30.05,North,353,10.1,17.4,24,0.00,,---,0.00,VWS V12.08,2013-05-12 21:17:00,
2013-05-12 16:32:00,55.9,18.7,30.05,NW,311,12.3,14.5,23,0.00,,---,0.00,VWS V12.08,2013-05-12 21:32:00,
2013-05-12 16:47:00,54.1,18.2,30.05,WNW,294,4.0,14.5,24,0.00,,---,0.00,VWS V12.08,2013-05-12 21:47:00,
2013-05-12 17:02:00,54.7,18.6,30.05,WNW,295,8.3,15.0,24,0.00,,---,0.00,VWS V12.08,2013-05-12 22:02:00,
2013-05-12 17:17:00,54.5,18.5,30.05,NW,318,10.5,18.3,24,0.00,,---,0.00,VWS V12.08,2013-05-12 22:17:00,
2013-05-12 17:32:00,54.0,18.0,30.05,WNW,296,5.4,12.8,24,0.00,,---,0.00,VWS V12.08,2013-05-12 22:32:00,
2013-05-12 17:47:00,55.2,19.1,30.05,NW,317,5.8,17.9,24,0.00,,---,0.00,VWS V12.08,2013-05-12 22:47:00,
2013-05-12 18:02:00,54.1,18.2,30.05,WNW,294,14.5,16.3,24,0.00,,---,0.00,VWS V12.08,2013-05-12 23:02:00,
2013-05-12 18:17:00,53.8,17.9,30.05,NW,314,8.7,15.4,24,0.00,,---,0.00,VWS V12.08,2013-05-12 23:17:00,
2013-05-12 18:32:00,53.6,17.7,30.05,NW,308,12.3,17.0,24,0.00,,---,0.00,VWS V12.08,2013-05-12 23:32:00,
2013-05-12 18:47:00,52.7,16.9,30.05,NW,319,10.1,12.3,24,0.00,,---,0.00,VWS V12.08,2013-05-12 23:47:00,
2013-05-12 19:02:00,52.3,16.6,30.05,NNW,329,8.3,13.2,24,0.00,,---,0.00,VWS V12.08,2013-05-13 00:02:00,
2013-05-12 19:17:00,52.0,16.3,30.05,NW,307,6.3,12.8,24,0.00,,---,0.00,VWS V12.08,2013-05-13 00:17:00,
2013-05-12 19:32:00,51.6,17.0,30.05,WNW,287,6.3,9.6,25,0.00,,---,0.00,VWS V12.08,2013-05-13 00:32:00,
2013-05-12 19:46:00,51.1,16.5,30.05,NNW,327,3.6,8.7,25,0.00,,---,0.00,VWS V12.08,2013-05-13 00:46:00,
2013-05-12 20:01:00,50.0,15.6,30.05,NW,306,3.1,8.3,25,0.00,,---,0.00,VWS V12.08,2013-05-13 01:01:00,
2013-05-12 20:16:00,48.7,14.5,30.05,NW,311,4.9,6.7,25,0.00,,---,0.00,VWS V12.08,2013-05-13 01:16:00,
2013-05-12 20:31:00,48.2,14.0,30.05,NW,313,3.1,7.6,25,0.00,,---,0.00,VWS V12.08,2013-05-13 01:31:00,
2013-05-12 20:46:00,47.3,13.3,30.05,NW,321,2.7,6.3,25,0.00,,---,0.00,VWS V12.08,2013-05-13 01:46:00,
2013-05-12 21:02:00,46.0,13.1,30.05,NW,322,3.1,3.6,26,0.00,,---,0.00,VWS V12.08,2013-05-13 02:02:00,
2013-05-12 21:16:00,45.0,12.2,30.05,NW,319,2.7,4.0,26,0.00,,---,0.00,VWS V12.08,2013-05-13 02:16:00,
2013-05-12 21:32:00,44.2,11.5,30.05,NW,316,0.0,4.0,26,0.00,,---,0.00,VWS V12.08,2013-05-13 02:32:00,
2013-05-12 21:47:00,43.5,10.9,30.05,NW,317,0.0,0.0,26,0.00,,---,0.00,VWS V12.08,2013-05-13 02:47:00,
2013-05-12 22:02:00,43.2,10.6,30.05,WSW,257,3.6,4.0,26,0.00,,---,0.00,VWS V12.08,2013-05-13 03:02:00,
2013-05-12 22:17:00,43.0,10.5,30.05,WSW,258,0.0,4.0,26,0.00,,---,0.00,VWS V12.08,2013-05-13 03:17:00,
2013-05-12 22:32:00,42.4,10.8,30.05,West,270,3.1,3.6,27,0.00,,---,0.00,VWS V12.08,2013-05-13 03:32:00,
2013-05-12 22:47:00,42.1,10.5,30.05,West,268,2.2,3.6,27,0.00,,---,0.00,VWS V12.08,2013-05-13 03:47:00,
2013-05-12 23:02:00,41.5,10.1,30.05,West,259,4.9,4.9,27,0.00,,---,0.00,VWS V12.08,2013-05-13 04:02:00,
2013-05-12 23:17:00,41.2,9.8,30.05,WSW,256,5.4,5.8,27,0.00,,---,0.00,VWS V12.08,2013-05-13 04:17:00,
2013-05-12 23:32:00,40.5,9.1,30.05,NNW,334,5.8,7.6,27,0.00,,---,0.00,VWS V12.08,2013-05-13 04:32:00,
2013-05-12 23:47:00,40.1,8.8,30.05,North,5,7.6,7.6,27,0.00,,---,0.00,VWS V12.08,2013-05-13 04:47:00,